Theta_e
343 341 343 337 320 317 311 312 319 318 319 326 327 324 322 324 317 314 339 341 337 342 348 352 353 352 352 351 351 350 350 350 349 349 349 349 348 348 348 347 347 347 347 347 347 347 347 347 346
341 338 340 330 316 309 309 316 313 318 323 326 325 323 320 321 331 333 335 342 343 344 349 350 353 352 352 352 351 350 350 350 350 350 351 350 350 349 349 349 350 349 347 347 347 348 349 348 348
340 340 329 324 317 311 309 315 315 317 320 319 320 328 326 327 335 336 341 341 342 343 345 353 354 353 353 353 352 351 351 351 351 351 351 350 348 347 346 346 346 346 348 349 348 348 349 349 350
339 335 330 317 314 317 316 318 320 318 320 322 323 322 332 335 334 338 340 339 339 342 346 353 353 355 354 354 353 353 352 352 352 351 349 349 347 346 346 346 346 345 346 346 347 348 349 349 350
337 330 320 316 315 318 320 322 323 319 319 322 325 322 327 336 337 338 342 344 346 349 351 353 350 350 354 354 355 355 353 351 349 350 350 348 347 346 346 346 346 345 345 345 346 347 349 350 349
326 328 319 312 315 319 322 323 322 320 322 324 325 327 330 341 340 341 344 347 349 348 350 352 355 351 351 356 354 353 352 351 351 349 348 347 346 346 346 346 346 346 346 346 346 346 346 347 348
320 322 315 314 316 317 320 325 322 321 322 323 327 325 332 338 343 344 346 346 345 346 346 347 347 354 353 353 354 354 352 349 347 346 344 344 344 343 342 342 341 342 343 345 344 345 345 345 346
324 323 315 317 314 316 322 326 326 325 324 331 331 324 328 337 343 344 343 342 342 342 343 343 344 346 347 350 349 347 346 345 343 342 341 340 343 338 335 336 333 335 338 340 340 341 342 344 346
325 318 315 315 316 319 326 324 328 330 326 330 331 332 335 339 342 339 337 336 334 331 331 333 336 339 341 344 345 346 344 342 342 340 336 338 333 331 331 329 329 329 331 333 335 337 340 341 343
317 316 317 322 323 322 324 326 325 325 325 327 329 335 338 339 337 335 332 327 326 325 325 327 331 336 337 338 343 343 341 337 334 333 333 330 331 329 326 327 326 327 328 329 332 333 335 337 334
319 317 323 324 327 326 327 325 328 325 322 326 329 332 335 335 334 329 325 325 323 324 325 326 330 335 337 337 336 335 334 333 332 332 332 330 327 325 324 324 324 326 326 325 327 330 331 334 336
319 324 326 326 327 326 325 327 326 326 327 331 335 336 335 331 327 325 323 324 324 324 324 325 331 335 338 336 333 332 330 330 329 330 330 326 324 325 325 324 325 325 325 326 325 325 327 330 331
324 325 327 328 327 327 327 325 326 326 330 334 336 335 331 328 324 325 326 326 326 324 324 326 332 336 337 335 332 331 330 329 329 327 328 327 325 325 325 325 325 325 326 325 324 324 324 324 326
327 326 326 326 326 324 322 325 327 326 331 332 334 334 332 326 324 325 326 326 326 325 325 325 328 332 332 332 333 330 330 328 326 326 327 328 326 327 325 325 325 324 325 325 325 324 324 323 323
327 323 324 324 322 321 326 320 323 330 331 331 332 334 332 326 325 325 326 326 326 326 327 325 325 328 330 330 329 328 328 326 325 325 328 327 328 328 327 324 323 323 324 323 323 323 324 323 322
322 323 317 322 323 322 323 314 325 330 330 329 330 332 332 328 325 326 327 327 327 327 326 327 325 326 327 328 327 325 326 326 325 325 326 327 327 327 326 323 323 324 324 323 322 322 322 322 322
319 312 313 317 324 323 321 316 324 329 328 328 330 332 332 330 327 328 327 327 327 326 326 325 324 324 326 328 326 326 327 325 324 325 326 327 325 324 325 322 323 325 322 323 322 322 322 320 321
309 311 313 314 321 322 319 318 323 327 326 327 330 332 332 332 329 330 328 328 327 327 327 326 323 325 327 326 327 325 325 324 325 325 326 326 324 324 324 323 324 324 322 322 321 321 322 321 320
313 312 312 318 321 320 319 320 321 324 324 326 329 330 332 333 334 332 330 329 328 325 327 325 323 325 323 321 320 320 320 322 324 325 326 325 324 324 324 322 323 323 322 319 319 320 320 319 321
313 312 314 318 320 320 320 318 322 324 326 327 328 329 331 332 334 332 332 330 327 325 326 326 324 325 324 323 323 323 322 323 325 324 325 325 324 324 323 323 322 322 320 320 318 318 316 317 318
315 313 314 314 318 320 318 316 319 324 327 328 329 330 331 332 333 334 332 331 329 326 324 325 324 324 325 326 324 325 326 325 321 322 322 324 324 324 323 323 322 321 320 318 318 316 316 313 316
312 316 316 315 314 307 317 305 317 321 322 324 326 328 328 330 334 335 334 332 329 328 326 323 324 324 323 326 324 325 321 319 321 321 323 323 324 323 322 322 321 319 319 318 317 316 315 312 309
315 319 318 316 314 312 313 309 315 319 317 320 324 326 326 329 333 333 334 333 329 328 327 326 323 323 323 325 326 323 323 322 322 321 324 324 324 323 321 322 322 320 319 318 317 316 314 312 311
321 318 316 316 313 306 311 309 310 315 317 319 322 324 325 329 332 333 334 334 329 329 326 325 322 323 323 322 323 325 325 324 322 322 320 319 320 320 322 321 321 321 320 318 317 316 316 315 313
319 316 306 305 305 303 313 309 310 318 320 321 321 324 327 330 332 332 332 331 329 328 326 324 322 322 322 321 322 324 325 326 324 322 320 320 318 319 321 321 321 319 320 319 317 316 317 315 313
316 314 306 299 300 302 312 304 310 320 323 325 325 326 328 329 331 331 332 330 328 328 326 323 321 320 321 321 322 324 324 322 323 323 322 320 319 319 322 320 320 319 319 319 319 316 315 315 316
315 311 315 309 310 305 306 310 318 321 321 324 324 326 328 329 331 332 332 329 329 329 326 323 321 320 321 321 325 326 325 324 324 325 325 321 323 320 322 320 319 319 319 319 319 316 316 315 316
316 317 309 310 300 298 304 305 307 313 317 322 324 325 329 331 332 332 330 328 329 329 327 324 323 321 321 321 323 324 323 324 324 325 324 324 324 323 322 319 319 320 320 320 320 317 317 316 315
312 311 312 312 309 301 300 304 315 315 319 320 323 326 328 330 330 330 328 328 329 328 325 324 323 321 321 321 322 322 323 323 324 324 324 324 324 323 321 319 318 318 320 320 320 319 317 316 316
316 314 314 307 304 309 306 306 319 322 323 325 323 325 328 329 329 328 327 327 328 327 325 322 323 321 320 322 322 322 323 324 323 324 325 326 324 324 321 319 318 318 319 320 319 318 318 317 315
Wind_Speed
10 9 4 7 4 10 16 14 12 10 11 12 11 13 18 19 16 8 7 8 6 9 6 9 4 3 2 2 3 2 2 3 4 5 6 6 7 9 10 10 10 10 10 9 10 10 10 10 9
7 4 6 5 5 12 13 15 16 14 13 13 15 16 17 20 16 13 7 8 7 7 7 7 4 1 1 1 1 2 3 3 4 5 5 6 6 7 9 10 11 11 10 11 10 11 11 11 12
5 5 6 3 9 13 12 12 11 12 8 10 10 13 10 8 13 6 7 5 6 5 6 8 3 2 2 1 1 2 3 3 4 5 6 6 7 7 8 9 10 11 12 12 12 11 11 12 12
4 6 5 8 15 10 13 9 11 11 12 10 15 15 9 12 5 6 6 5 6 7 7 10 5 5 4 3 3 3 4 4 4 4 5 5 5 6 8 9 10 11 11 12 12 12 12 12 12
6 5 5 9 13 10 10 9 9 12 11 13 15 16 10 11 9 8 8 7 7 8 9 9 6 6 5 4 4 4 4 4 4 5 6 6 6 7 8 9 10 11 11 11 12 14 12 12 13
6 4 1 9 13 10 9 6 9 12 17 16 16 14 10 7 9 9 8 9 9 9 9 10 10 8 4 5 4 5 5 3 7 7 8 8 8 8 9 10 13 14 14 13 13 15 15 15 13
7 4 7 7 11 9 8 7 9 10 12 12 4 14 9 10 8 8 9 9 10 9 10 9 10 7 9 11 9 10 11 10 9 9 8 9 10 10 11 11 14 15 16 16 15 15 17 14 13
5 4 3 1 6 11 7 10 8 12 12 7 10 7 10 9 8 7 8 9 11 12 12 13 11 12 9 9 13 14 13 12 13 12 10 5 8 9 10 13 16 16 16 15 15 15 17 16 10
4 5 5 7 0 9 11 12 14 15 17 18 13 16 14 10 6 7 7 12 11 11 12 12 12 12 10 9 8 9 11 10 7 8 10 6 9 11 11 11 14 15 16 14 14 13 14 14 12
7 5 11 9 6 8 7 11 13 15 13 15 14 15 11 9 7 9 10 11 12 13 12 11 11 11 10 7 8 7 8 10 10 11 10 9 10 10 10 9 11 13 16 14 13 11 10 12 10
3 9 9 10 9 7 13 9 10 13 11 8 12 10 10 10 10 11 11 11 11 12 11 12 11 9 9 8 6 5 5 5 7 11 10 9 8 8 8 7 8 9 11 9 11 9 9 9 9
10 7 10 10 7 6 9 9 15 10 15 6 10 9 9 9 11 10 11 10 11 13 14 14 12 9 10 6 7 6 6 6 6 8 11 8 7 8 8 7 8 8 8 9 9 7 9 11 10
13 10 12 9 9 12 11 12 13 15 11 10 9 8 10 10 11 10 10 12 13 14 14 13 12 11 9 8 6 6 6 6 6 7 10 9 8 9 8 7 8 8 8 9 9 9 9 10 10
11 15 14 12 10 6 12 16 10 11 10 8 9 9 9 10 10 9 10 10 10 11 12 11 11 9 8 7 7 5 5 5 6 7 10 10 9 8 8 7 8 9 9 9 9 10 10 9 9
17 16 13 10 5 11 12 11 13 11 8 9 10 9 8 9 9 8 8 8 7 9 10 11 10 9 8 7 7 5 6 6 6 6 8 10 9 9 9 8 8 9 9 11 9 10 9 9 9
8 12 11 10 7 4 9 10 11 8 9 10 9 9 8 7 6 6 6 5 7 9 9 10 9 8 8 8 7 6 6 5 6 6 6 10 9 10 10 8 9 10 8 8 9 10 9 9 9
10 4 1 8 8 4 5 8 14 10 6 8 9 9 8 8 7 6 5 5 7 7 9 10 9 9 8 7 6 5 5 5 5 6 7 10 10 12 11 9 9 11 8 8 10 10 10 9 8
6 4 3 4 9 8 5 2 14 11 8 8 9 9 9 9 9 7 5 5 5 6 7 10 10 10 7 5 2 3 3 4 5 6 7 10 10 12 10 8 9 10 9 10 10 11 10 9 9
7 3 1 3 4 8 5 3 13 11 10 9 9 9 9 9 8 8 7 5 5 4 7 9 10 9 7 6 6 5 5 5 5 6 8 10 10 11 10 9 9 10 9 9 10 12 12 9 10
3 3 5 4 3 8 3 4 12 13 13 12 12 10 9 9 9 9 8 6 3 4 5 7 8 8 6 5 5 6 6 5 5 6 6 9 11 11 9 10 10 11 10 9 9 10 9 9 6
4 3 5 4 7 2 5 10 13 13 13 12 12 10 11 11 10 10 9 6 6 3 4 6 7 6 5 6 4 3 2 2 5 6 7 8 10 11 11 11 10 10 10 10 9 9 11 10 10
7 2 5 7 9 5 4 4 14 14 14 13 13 13 14 13 11 10 10 8 6 3 4 4 5 5 4 6 5 6 5 6 6 6 7 7 9 10 10 11 10 10 9 9 10 9 8 7 7
6 7 6 5 4 5 8 8 11 9 13 14 14 12 12 13 12 11 10 8 6 6 5 4 4 3 4 4 6 7 6 6 5 6 7 6 6 8 11 11 10 10 9 10 8 9 7 6 6
13 9 5 5 5 8 5 5 3 6 10 11 15 14 13 11 10 9 8 8 7 7 6 4 3 1 3 3 4 5 7 7 7 7 7 7 6 6 10 10 9 9 10 11 9 8 7 7 6
6 8 5 3 1 5 4 6 6 1 2 6 11 15 14 12 10 10 10 10 8 8 6 4 3 2 1 2 3 5 6 6 6 7 6 8 7 7 9 9 9 9 10 11 10 7 7 8 7
9 5 7 10 10 9 3 4 6 1 2 4 7 10 12 12 12 11 10 9 9 8 7 6 5 4 1 2 2 4 5 6 5 5 6 6 7 7 8 8 8 9 10 10 9 7 8 8 7
7 7 5 8 5 9 5 2 8 5 7 7 9 11 12 13 12 10 10 9 8 8 7 6 4 3 3 2 2 2 3 5 5 6 6 5 5 6 7 7 7 8 9 10 10 7 8 8 7
7 4 5 6 7 9 3 4 6 2 5 8 10 12 12 13 12 11 10 10 8 8 7 6 5 5 5 4 3 3 4 4 5 5 5 6 6 6 6 6 6 6 7 8 9 9 8 7 6
7 9 3 5 6 8 6 6 5 3 2 6 8 11 11 11 11 11 11 10 10 8 8 7 6 6 6 6 5 4 4 5 5 5 6 5 6 6 6 6 6 6 6 7 8 8 7 9 9
6 8 4 6 2 2 7 6 6 1 2 3 5 7 9 10 10 12 11 11 10 9 7 7 6 6 6 5 6 6 5 6 5 6 7 6 6 6 6 6 6 7 7 7 8 9 8 9 9
Wind_Direction
160 192 228 238 173 74 52 56 46 49 77 67 66 73 71 51 26 60 83 42 95 81 93 118 73 46 29 22 23 9 349 343 345 351 350 346 346 344 342 338 333 329 327 324 323 323 325 327 332
162 188 227 265 92 83 69 74 71 68 90 91 97 95 81 73 29 74 111 51 78 91 81 60 59 18 2 345 327 325 319 322 331 335 336 342 340 336 333 327 320 315 314 313 310 311 313 317 321
209 257 279 49 48 66 88 82 82 85 97 106 101 54 37 8 44 56 61 93 93 92 83 77 8 318 307 303 273 293 304 315 332 336 343 344 343 339 334 326 317 313 309 304 301 300 300 304 307
254 201 209 71 90 65 94 90 98 111 96 83 109 89 94 36 44 55 72 54 51 43 30 79 13 315 302 300 310 314 312 315 315 329 347 343 339 341 340 338 326 320 311 300 297 296 294 290 290
235 246 107 81 86 96 83 66 45 94 81 93 92 94 84 59 79 89 71 53 51 39 33 45 25 337 297 293 300 314 306 313 346 2 5 11 15 18 6 351 341 330 321 310 301 294 293 286 280
240 272 150 82 99 111 95 66 75 88 107 109 108 96 69 88 87 82 67 54 42 34 24 20 89 49 55 344 359 348 351 22 55 48 39 42 34 22 12 6 1 351 341 329 328 319 303 289 280
302 314 47 85 109 120 102 69 71 85 92 49 115 92 99 94 97 79 68 65 49 33 30 45 17 72 134 67 33 51 58 62 56 51 51 58 52 45 31 18 13 1 357 349 353 349 338 319 286
286 283 151 89 146 105 117 97 72 32 64 85 346 111 105 103 97 98 85 66 50 33 25 15 15 11 3 62 53 62 58 63 64 54 45 13 109 25 37 13 15 359 357 353 352 345 339 335 320
267 252 89 71 57 110 140 109 73 71 77 66 64 78 95 112 107 68 61 54 34 31 24 17 9 2 3 30 66 114 92 88 80 72 37 33 22 16 359 25 3 355 354 341 348 347 339 323 269
271 313 54 29 67 122 123 123 119 106 93 95 94 91 84 80 94 73 51 44 34 28 22 15 15 5 359 28 22 50 61 52 43 35 25 14 10 8 343 356 1 358 1 345 343 337 319 319 327
42 57 98 84 83 121 105 110 150 110 93 58 100 106 103 96 78 69 63 46 36 34 20 15 25 19 16 46 19 34 46 39 53 40 21 23 360 4 2 358 3 359 5 2 347 345 344 348 333
105 74 105 102 111 117 89 124 84 99 93 114 101 104 112 108 96 78 67 58 41 31 22 20 25 29 37 27 34 46 42 40 32 40 12 16 11 6 7 7 3 358 359 354 352 348 341 333 335
95 95 90 109 102 93 109 118 107 108 115 105 115 137 123 108 102 95 77 55 39 29 23 25 31 37 31 33 34 34 33 30 23 25 34 14 8 2 2 2 355 357 350 352 350 353 346 332 327
117 109 111 120 119 120 121 123 121 118 133 139 143 132 121 110 106 94 71 58 46 31 27 28 35 38 43 45 34 16 32 25 23 38 23 16 358 2 349 355 354 356 347 345 342 348 338 334 337
125 120 125 128 125 121 115 122 115 129 153 137 142 132 129 118 104 84 80 64 42 59 34 24 37 35 28 27 9 23 14 23 24 25 37 8 11 4 339 356 355 355 340 339 341 334 333 333 336
158 169 182 148 172 149 262 130 149 152 157 144 151 144 148 116 119 114 107 88 62 44 41 33 25 33 42 30 27 24 28 23 19 14 22 6 11 13 340 358 2 348 346 350 347 343 338 335 334
185 338 120 163 194 172 264 131 155 169 167 161 171 162 158 160 157 156 150 108 72 57 39 34 29 22 15 38 20 26 26 18 18 18 21 7 12 8 349 12 5 342 356 0 355 351 351 334 339
4 223 204 226 168 221 205 161 156 170 200 188 195 178 191 196 185 171 165 110 98 65 49 38 28 22 7 350 304 19 34 24 26 28 21 13 10 12 1 10 3 348 5 5 354 347 346 331 348
308 301 207 75 112 239 251 201 170 181 208 222 214 200 206 205 169 175 181 150 123 77 52 38 36 25 2 8 358 2 8 21 26 22 20 11 11 15 13 2 2 356 7 1 1 348 343 342 0
172 161 110 122 145 255 187 200 162 189 211 221 214 219 208 205 187 190 193 170 148 89 57 47 41 31 5 18 3 353 351 14 348 22 16 18 9 12 11 4 0 4 339 18 354 359 345 342 24
119 326 164 3 158 187 208 207 196 209 215 220 226 221 223 210 198 197 200 194 174 146 75 55 46 24 9 347 4 348 284 259 9 3 15 14 8 11 13 7 4 355 339 9 355 6 359 337 1
153 218 176 164 220 13 225 7 185 195 211 215 221 219 219 210 206 198 196 191 191 160 125 93 60 22 34 351 21 9 347 357 359 349 15 349 13 12 13 10 8 360 342 10 4 10 358 357 357
87 155 176 213 266 280 162 264 105 187 215 209 205 202 206 201 201 200 192 191 181 155 176 124 93 28 9 354 346 328 357 354 359 351 347 3 20 18 13 12 12 3 360 7 9 2 11 1 345
137 143 158 227 276 231 75 282 252 169 239 207 191 192 191 197 194 199 183 167 181 168 176 146 123 30 355 324 340 340 339 338 348 357 338 355 6 11 26 6 4 10 360 8 4 3 14 22 359
233 215 259 267 218 5 94 249 319 293 195 243 191 193 189 189 199 198 187 179 178 177 192 169 163 236 342 324 320 336 333 323 317 334 6 330 357 9 19 360 5 5 5 5 12 4 0 22 1
216 295 324 314 352 354 137 282 50 93 167 228 241 193 188 191 201 200 185 185 179 176 192 182 171 231 187 330 334 336 338 335 304 13 344 353 349 11 3 359 3 6 7 6 8 18 356 6 3
156 235 14 284 195 260 51 186 198 207 233 202 204 204 187 194 197 197 182 181 182 177 184 203 204 205 211 278 274 312 328 331 339 335 317 4 349 345 7 355 359 4 7 10 346 22 19 355 355
280 99 226 214 314 319 51 278 7 323 179 188 191 195 194 194 194 197 181 177 188 184 173 190 212 216 213 241 262 309 329 323 327 317 330 333 338 343 338 341 348 354 359 5 356 358 19 357 355
167 209 254 300 286 320 313 15 85 329 328 193 201 193 192 194 195 185 183 175 187 187 194 185 209 232 222 227 252 265 300 313 317 314 317 323 319 332 326 324 323 333 337 350 348 351 6 358 351
292 299 242 286 309 267 292 287 125 196 194 255 226 186 187 190 188 183 183 177 185 190 193 186 221 257 240 245 246 254 274 287 299 317 312 307 304 311 316 307 306 307 318 326 331 334 339 344 351